| time (UTC) | temp F | wind direction | speed knots | gust knots | rain 1hr in | rain 24hr in | rain mn in | humidity % | barometer mb |
| 20260507231516 | 60 | 296 | 2.6 | 7.0 | 0.00 | 0.01 | 0.01 | 44 | 1006.7 |
| 20260507231057 | 60 | 324 | 2.6 | 9.6 | 0.00 | 0.01 | 0.01 | 44 | 1006.6 |
| 20260507230535 | 60 | 327 | 4.3 | 9.6 | 0.00 | 0.01 | 0.01 | 43 | 1006.6 |
| 20260507230042 | 61 | 312 | 5.2 | 8.7 | 0.00 | 0.01 | 0.01 | 43 | 1006.5 |
| 20260507225523 | 61 | 308 | 5.2 | 11.3 | 0.00 | 0.01 | 0.01 | 42 | 1006.5 |
| 20260507225100 | 61 | 284 | 4.3 | 11.3 | 0.00 | 0.01 | 0.01 | 42 | 1006.5 |
| 20260507224501 | 61 | 298 | 3.5 | 9.6 | 0.00 | 0.01 | 0.01 | 41 | 1006.1 |
| 20260507224043 | 62 | 303 | 5.2 | 9.6 | 0.00 | 0.01 | 0.01 | 41 | 1006.2 |
| 20260507223521 | 62 | 306 | 1.7 | 7.0 | 0.00 | 0.01 | 0.01 | 42 | 1006.1 |
| 20260507223041 | 62 | 297 | 3.5 | 8.7 | 0.00 | 0.01 | 0.01 | 41 | 1006.1 |
| 20260507222515 | 62 | 258 | 5.2 | 8.7 | 0.00 | 0.01 | 0.01 | 40 | 1006.0 |
| 20260507222057 | 63 | 296 | 4.3 | 7.8 | 0.00 | 0.01 | 0.01 | 40 | 1006.0 |
| 20260507221511 | 63 | 289 | 0.9 | 5.2 | 0.00 | 0.01 | 0.01 | 41 | 1005.8 |
| 20260507221057 | 63 | 292 | 2.6 | 5.2 | 0.00 | 0.01 | 0.01 | 41 | 1005.7 |
| 20260507220534 | 63 | 293 | 1.7 | 7.8 | 0.00 | 0.01 | 0.01 | 41 | 1005.8 |
| 20260507220048 | 63 | 291 | 4.3 | 7.8 | 0.00 | 0.01 | 0.01 | 42 | 1005.7 |
| 20260507215530 | 63 | 266 | 3.5 | 9.6 | 0.00 | 0.01 | 0.01 | 41 | 1005.7 |
| 20260507215004 | 63 | 287 | 4.3 | 13.0 | 0.00 | 0.01 | 0.01 | 40 | 1005.7 |
| 20260507214521 | 63 | 276 | 4.3 | 12.2 | 0.00 | 0.01 | 0.01 | 40 | 1005.5 |
| 20260507214100 | 63 | 310 | 3.5 | 8.7 | 0.00 | 0.01 | 0.01 | 40 | 1005.5 |
| 20260507213538 | 64 | 268 | 2.6 | 9.6 | 0.00 | 0.01 | 0.01 | 39 | 1005.4 |
| 20260507213056 | 64 | 310 | 4.3 | 10.4 | 0.00 | 0.01 | 0.01 | 39 | 1005.4 |
| 20260507212533 | 65 | 293 | 4.3 | 8.7 | 0.00 | 0.01 | 0.01 | 41 | 1005.3 |
| 20260507212012 | 64 | 318 | 1.7 | 7.0 | 0.00 | 0.01 | 0.01 | 40 | 1005.3 |
| 20260507211530 | 65 | 301 | 3.5 | 7.0 | 0.00 | 0.01 | 0.01 | 38 | 1005.4 |
| 20260507211008 | 65 | 303 | 1.7 | 5.2 | 0.00 | 0.01 | 0.01 | 39 | 1005.2 |
| 20260507210549 | 65 | 293 | 3.5 | 6.1 | 0.00 | 0.01 | 0.01 | 39 | 1005.1 |
| 20260507210055 | 64 | 283 | 2.6 | 7.8 | 0.00 | 0.01 | 0.01 | 40 | 1005.1 |
| 20260507205534 | 64 | 321 | 1.7 | 8.7 | 0.00 | 0.01 | 0.01 | 40 | 1005.2 |
| 20260507205013 | 64 | 254 | 4.3 | 9.6 | 0.00 | 0.01 | 0.01 | 41 | 1005.2 |
| 20260507204527 | 64 | 344 | 3.5 | 8.7 | 0.00 | 0.01 | 0.01 | 40 | 1005.1 |
| 20260507204007 | 65 | 293 | 5.2 | 14.8 | 0.00 | 0.01 | 0.01 | 39 | 1005.4 |
| 20260507203548 | 65 | 301 | 4.3 | 14.8 | 0.00 | 0.01 | 0.01 | 41 | 1005.2 |
| 20260507203053 | 65 | 301 | 4.3 | 8.7 | 0.00 | 0.01 | 0.01 | 41 | 1005.1 |
| 20260507202531 | 65 | 320 | 3.5 | 7.8 | 0.00 | 0.01 | 0.01 | 39 | 1005.1 |
| 20260507202008 | 65 | 10 | 3.5 | 7.0 | 0.00 | 0.01 | 0.01 | 41 | 1005.2 |
| 20260507201518 | 65 | 316 | 1.7 | 9.6 | 0.00 | 0.01 | 0.01 | 41 | 1005.2 |
| 20260507201055 | 65 | 209 | 3.5 | 9.6 | 0.00 | 0.01 | 0.01 | 42 | 1005.4 |
| 20260507200531 | 65 | 347 | 3.5 | 7.0 | 0.00 | 0.01 | 0.01 | 42 | 1005.4 |
| 20260507200038 | 65 | 354 | 2.6 | 8.7 | 0.00 | 0.01 | 0.01 | 40 | 1005.4 |
| 20260507195516 | 65 | 314 | 4.3 | 7.8 | 0.00 | 0.01 | 0.01 | 42 | 1005.4 |
| 20260507195102 | 65 | 322 | 2.6 | 7.8 | 0.00 | 0.01 | 0.01 | 40 | 1005.4 |
| 20260507194605 | 65 | 239 | 3.5 | 7.8 | 0.00 | 0.01 | 0.01 | 40 | 1005.5 |
| 20260507194042 | 64 | 242 | 5.2 | 9.6 | 0.00 | 0.01 | 0.01 | 41 | 1005.5 |
| 20260507193520 | 65 | 273 | 5.2 | 10.4 | 0.00 | 0.01 | 0.01 | 41 | 1005.5 |
| 20260507193037 | 65 | 294 | 3.5 | 8.7 | 0.00 | 0.01 | 0.01 | 42 | 1005.7 |
| 20260507192515 | 65 | 314 | 4.3 | 8.7 | 0.00 | 0.01 | 0.01 | 41 | 1005.5 |
| 20260507192057 | 65 | 249 | 4.3 | 8.7 | 0.00 | 0.01 | 0.01 | 40 | 1005.5 |
| 20260507191511 | 65 | 276 | 4.3 | 9.6 | 0.00 | 0.01 | 0.01 | 40 | 1005.5 |
| 20260507191051 | 65 | 291 | 5.2 | 9.6 | 0.00 | 0.01 | 0.01 | 39 | 1005.6 |
| 20260507190531 | 65 | 313 | 3.5 | 12.2 | 0.00 | 0.01 | 0.01 | 40 | 1005.5 |
| 20260507190046 | 66 | 283 | 6.1 | 12.2 | 0.00 | 0.01 | 0.01 | 40 | 1005.6 |
| 20260507185523 | 66 | 4 | 3.5 | 9.6 | 0.00 | 0.01 | 0.01 | 40 | 1005.4 |
| 20260507185001 | 66 | 310 | 4.3 | 9.6 | 0.00 | 0.01 | 0.01 | 43 | 1005.5 |
| 20260507184520 | 66 | 335 | 2.6 | 5.2 | 0.00 | 0.01 | 0.01 | 41 | 1005.4 |
| 20260507184105 | 66 | 298 | 2.6 | 5.2 | 0.00 | 0.01 | 0.01 | 44 | 1005.6 |
| 20260507183538 | 65 | 324 | 1.7 | 8.7 | 0.00 | 0.01 | 0.01 | 45 | 1005.6 |
| 20260507183058 | 65 | 286 | 3.5 | 8.7 | 0.00 | 0.01 | 0.01 | 42 | 1005.9 |
| 20260507182533 | 65 | 266 | 5.2 | 8.7 | 0.00 | 0.01 | 0.01 | 43 | 1005.8 |
| 20260507182012 | 64 | 271 | 2.6 | 7.0 | 0.00 | 0.01 | 0.01 | 45 | 1005.8 |
| 20260507181528 | 64 | 93 | 0.0 | 4.3 | 0.00 | 0.01 | 0.01 | 48 | 1005.8 |
| 20260507181007 | 64 | 131 | 1.7 | 4.3 | 0.00 | 0.01 | 0.01 | 45 | 1005.7 |
| 20260507180552 | 65 | 17 | 0.9 | 3.5 | 0.00 | 0.01 | 0.01 | 47 | 1005.8 |
| 20260507180001 | 64 | 10 | 0.9 | 4.3 | 0.00 | 0.01 | 0.01 | 48 | 1005.8 |
| 20260507175543 | 64 | 293 | 0.0 | 7.8 | 0.00 | 0.01 | 0.01 | 47 | 1005.9 |
| 20260507175021 | 64 | 290 | 4.3 | 7.8 | 0.00 | 0.01 | 0.01 | 48 | 1006.0 |
| 20260507174540 | 64 | 301 | 1.7 | 7.8 | 0.00 | 0.01 | 0.01 | 48 | 1006.1 |
| 20260507174015 | 64 | 338 | 1.7 | 7.0 | 0.00 | 0.01 | 0.01 | 49 | 1006.1 |
| 20260507173558 | 64 | 331 | 3.5 | 6.1 | 0.00 | 0.01 | 0.01 | 48 | 1006.2 |
| 20260507173011 | 63 | 293 | 1.7 | 5.2 | 0.00 | 0.01 | 0.01 | 49 | 1006.2 |
| 20260507172554 | 63 | 270 | 2.6 | 7.0 | 0.00 | 0.01 | 0.01 | 51 | 1006.3 |
| 20260507172031 | 63 | 258 | 1.7 | 7.0 | 0.00 | 0.01 | 0.01 | 48 | 1006.4 |
| 20260507171535 | 63 | 304 | 3.5 | 8.7 | 0.00 | 0.01 | 0.01 | 51 | 1006.6 |
| 20260507171015 | 63 | 342 | 4.3 | 8.7 | 0.00 | 0.01 | 0.01 | 49 | 1006.6 |
| 20260507170556 | 63 | 236 | 1.7 | 10.4 | 0.00 | 0.01 | 0.01 | 50 | 1006.8 |
| 20260507170009 | 62 | 297 | 5.2 | 10.4 | 0.00 | 0.01 | 0.01 | 51 | 1006.8 |
| 20260507165552 | 62 | 245 | 3.5 | 8.7 | 0.00 | 0.01 | 0.01 | 50 | 1006.8 |
| 20260507165028 | 62 | 318 | 6.1 | 8.7 | 0.00 | 0.01 | 0.01 | 49 | 1007.2 |
| 20260507164547 | 62 | 18 | 3.5 | 9.6 | 0.00 | 0.01 | 0.01 | 52 | 1007.1 |
| 20260507164022 | 62 | 238 | 4.3 | 9.6 | 0.00 | 0.01 | 0.01 | 50 | 1007.2 |
| 20260507163502 | 61 | 241 | 0.9 | 8.7 | 0.00 | 0.01 | 0.01 | 52 | 1007.3 |
| 20260507163022 | 61 | 281 | 5.2 | 8.7 | 0.00 | 0.01 | 0.01 | 53 | 1007.3 |
| 20260507162559 | 61 | 264 | 4.3 | 10.4 | 0.00 | 0.01 | 0.01 | 53 | 1007.3 |
| 20260507162037 | 61 | 290 | 6.1 | 10.4 | 0.00 | 0.01 | 0.01 | 53 | 1007.4 |
| 20260507161559 | 60 | 168 | 1.7 | 4.3 | 0.00 | 0.01 | 0.01 | 54 | 1007.6 |
| 20260507161033 | 60 | 268 | 1.7 | 7.8 | 0.00 | 0.01 | 0.01 | 55 | 1007.6 |
| 20260507160511 | 60 | 233 | 3.5 | 7.8 | 0.00 | 0.01 | 0.01 | 56 | 1007.6 |
| 20260507160032 | 59 | 171 | 1.7 | 8.7 | 0.00 | 0.01 | 0.01 | 56 | 1007.6 |
| 20260507155509 | 59 | 293 | 4.3 | 8.7 | 0.00 | 0.01 | 0.01 | 55 | 1007.8 |
| 20260507155047 | 59 | 286 | 2.6 | 7.8 | 0.00 | 0.01 | 0.01 | 57 | 1007.8 |
| 20260507154502 | 59 | 301 | 4.3 | 7.8 | 0.00 | 0.01 | 0.01 | 56 | 1007.9 |
| 20260507154045 | 59 | 295 | 5.2 | 7.8 | 0.00 | 0.01 | 0.01 | 56 | 1008.0 |
| 20260507153522 | 59 | 56 | 1.7 | 4.3 | 0.00 | 0.01 | 0.01 | 58 | 1008.0 |
| 20260507153039 | 58 | 197 | 0.9 | 3.5 | 0.00 | 0.01 | 0.01 | 60 | 1008.1 |
| 20260507152519 | 58 | 297 | 0.9 | 3.5 | 0.00 | 0.01 | 0.01 | 62 | 1008.1 |
| 20260507152059 | 58 | 193 | 0.9 | 3.5 | 0.00 | 0.01 | 0.01 | 60 | 1008.1 |
| 20260507151512 | 57 | 334 | 1.7 | 4.3 | 0.00 | 0.01 | 0.01 | 64 | 1008.3 |
| 20260507151054 | 57 | 312 | 2.6 | 5.2 | 0.00 | 0.01 | 0.01 | 61 | 1008.4 |
| 20260507150533 | 56 | 4 | 2.6 | 5.2 | 0.00 | 0.01 | 0.01 | 65 | 1008.4 |
| 20260507150036 | 55 | 9 | 0.0 | 0.0 | 0.00 | 0.01 | 0.01 | 66 | 1008.5 |
| 20260507145515 | 55 | 180 | 0.0 | 0.0 | 0.00 | 0.01 | 0.01 | 66 | 1008.8 |
| 20260507145056 | 55 | 180 | 0.0 | 0.0 | 0.00 | 0.01 | 0.01 | 66 | 1008.8 |
| 20260507144602 | 55 | 179 | 0.0 | 2.6 | 0.00 | 0.01 | 0.01 | 66 | 1008.9 |
| 20260507144041 | 56 | 179 | 0.0 | 2.6 | 0.00 | 0.01 | 0.01 | 66 | 1008.9 |
| 20260507143518 | 55 | 43 | 0.0 | 2.6 | 0.00 | 0.01 | 0.01 | 68 | 1009.0 |
| 20260507143027 | 54 | 63 | 0.9 | 2.6 | 0.00 | 0.01 | 0.01 | 69 | 1009.1 |
| 20260507142502 | 54 | 39 | 0.0 | 0.0 | 0.00 | 0.01 | 0.01 | 70 | 1009.2 |
| 20260507142043 | 54 | 39 | 0.0 | 0.0 | 0.00 | 0.01 | 0.01 | 70 | 1009.3 |
| 20260507141548 | 54 | 39 | 0.0 | 0.0 | 0.00 | 0.01 | 0.01 | 69 | 1009.3 |
| 20260507141026 | 53 | 39 | 0.0 | 0.0 | 0.00 | 0.01 | 0.01 | 71 | 1009.3 |
| 20260507140505 | 53 | 40 | 0.0 | 0.0 | 0.00 | 0.01 | 0.01 | 72 | 1009.4 |
| 20260507140026 | 53 | 39 | 0.0 | 0.0 | 0.00 | 0.01 | 0.01 | 71 | 1009.6 |
| 20260507135606 | 53 | 39 | 0.0 | 0.0 | 0.00 | 0.01 | 0.01 | 71 | 1009.6 |
| 20260507135042 | 53 | 39 | 0.0 | 0.0 | 0.00 | 0.01 | 0.01 | 71 | 1009.8 |
| 20260507134548 | 53 | 39 | 0.0 | 0.0 | 0.00 | 0.01 | 0.01 | 72 | 1009.8 |
| 20260507134030 | 53 | 39 | 0.0 | 0.0 | 0.00 | 0.01 | 0.01 | 71 | 1009.8 |
| 20260507133508 | 53 | 39 | 0.0 | 0.0 | 0.00 | 0.01 | 0.01 | 71 | 1009.9 |
| 20260507133022 | 53 | 39 | 0.0 | 0.0 | 0.00 | 0.01 | 0.01 | 74 | 1010.0 |
| 20260507132601 | 52 | 39 | 0.0 | 0.0 | 0.00 | 0.01 | 0.01 | 72 | 1010.0 |
| 20260507132039 | 52 | 39 | 0.0 | 0.0 | 0.00 | 0.01 | 0.01 | 72 | 1010.1 |
| 20260507131602 | 52 | 39 | 0.0 | 0.0 | 0.00 | 0.01 | 0.01 | 73 | 1010.1 |
| 20260507131037 | 51 | 39 | 0.0 | 0.0 | 0.00 | 0.01 | 0.01 | 74 | 1010.2 |
| 20260507130513 | 51 | 39 | 0.0 | 3.5 | 0.00 | 0.01 | 0.01 | 74 | 1010.1 |
| 20260507130030 | 51 | 39 | 0.9 | 3.5 | 0.00 | 0.01 | 0.01 | 74 | 1010.2 |
| 20260507125508 | 51 | 39 | 0.0 | 0.0 | 0.00 | 0.01 | 0.01 | 76 | 1010.2 |
| 20260507125052 | 51 | 39 | 0.0 | 0.0 | 0.00 | 0.01 | 0.01 | 75 | 1010.2 |
| 20260507124559 | 51 | 39 | 0.0 | 0.0 | 0.00 | 0.01 | 0.01 | 75 | 1010.2 |
| 20260507124033 | 51 | 14 | 0.0 | 0.0 | 0.00 | 0.01 | 0.01 | 74 | 1010.2 |
| 20260507123514 | 51 | 24 | 0.0 | 0.0 | 0.00 | 0.01 | 0.01 | 75 | 1010.1 |
| 20260507123029 | 51 | 25 | 0.0 | 0.0 | 0.00 | 0.01 | 0.01 | 75 | 1010.1 |
| 20260507122512 | 51 | 31 | 0.0 | 0.0 | 0.00 | 0.01 | 0.01 | 76 | 1010.0 |
| 20260507122049 | 51 | 31 | 0.0 | 0.0 | 0.00 | 0.01 | 0.01 | 76 | 1010.1 |
| 20260507121554 | 51 | 31 | 0.0 | 0.0 | 0.00 | 0.01 | 0.01 | 76 | 1010.0 |
| 20260507121032 | 51 | 31 | 0.0 | 0.0 | 0.00 | 0.01 | 0.01 | 77 | 1010.1 |
| 20260507120510 | 51 | 31 | 0.0 | 0.0 | 0.00 | 0.01 | 0.01 | 77 | 1009.9 |
| 20260507120015 | 51 | 31 | 0.0 | 0.0 | 0.00 | 0.01 | 0.01 | 78 | 1009.9 |
| 20260507115558 | 51 | 31 | 0.0 | 0.0 | 0.00 | 0.03 | 0.01 | 79 | 1009.9 |
| 20260507115036 | 51 | 31 | 0.0 | 0.0 | 0.00 | 0.03 | 0.01 | 77 | 1009.8 |
| 20260507114541 | 51 | 31 | 0.0 | 0.0 | 0.00 | 0.03 | 0.01 | 78 | 1009.7 |
| 20260507114019 | 51 | 31 | 0.0 | 0.0 | 0.00 | 0.03 | 0.01 | 78 | 1009.5 |
| 20260507113602 | 51 | 31 | 0.0 | 0.0 | 0.00 | 0.03 | 0.01 | 78 | 1009.5 |
| 20260507113002 | 51 | 32 | 0.0 | 0.0 | 0.00 | 0.03 | 0.01 | 78 | 1009.5 |
| 20260507112544 | 51 | 32 | 0.0 | 0.0 | 0.00 | 0.03 | 0.01 | 79 | 1009.4 |
| 20260507112026 | 51 | 32 | 0.0 | 0.0 | 0.00 | 0.03 | 0.01 | 78 | 1009.4 |
| 20260507111528 | 51 | 32 | 0.0 | 0.0 | 0.00 | 0.03 | 0.01 | 79 | 1009.3 |
| 20260507111006 | 51 | 32 | 0.0 | 0.0 | 0.00 | 0.03 | 0.01 | 78 | 1009.2 |
| 20260507110550 | 51 | 32 | 0.0 | 0.0 | 0.00 | 0.03 | 0.01 | 79 | 1009.2 |
| 20260507110058 | 51 | 32 | 0.0 | 0.0 | 0.00 | 0.03 | 0.01 | 80 | 1009.2 |
| 20260507105534 | 51 | 20 | 0.0 | 0.0 | 0.00 | 0.03 | 0.01 | 82 | 1009.3 |
| 20260507105011 | 50 | 20 | 0.0 | 0.0 | 0.00 | 0.03 | 0.01 | 83 | 1009.3 |
| 20260507104531 | 51 | 19 | 0.0 | 0.0 | 0.00 | 0.03 | 0.01 | 86 | 1009.2 |
| 20260507104006 | 51 | 84 | 0.0 | 0.0 | 0.00 | 0.03 | 0.01 | 86 | 1009.1 |
| 20260507103549 | 50 | 84 | 0.0 | 0.0 | 0.00 | 0.03 | 0.01 | 84 | 1009.1 |
| 20260507103054 | 50 | 84 | 0.0 | 0.0 | 0.00 | 0.03 | 0.01 | 84 | 1008.8 |
| 20260507102532 | 50 | 84 | 0.0 | 0.0 | 0.00 | 0.03 | 0.01 | 84 | 1008.8 |
| 20260507102012 | 50 | 84 | 0.0 | 0.0 | 0.00 | 0.03 | 0.01 | 85 | 1008.8 |
| 20260507101544 | 50 | 84 | 0.0 | 0.0 | 0.00 | 0.03 | 0.01 | 85 | 1008.6 |
| 20260507101008 | 50 | 84 | 0.0 | 0.0 | 0.00 | 0.03 | 0.01 | 85 | 1008.6 |
| 20260507100553 | 50 | 84 | 0.0 | 0.0 | 0.00 | 0.03 | 0.01 | 85 | 1008.5 |
| 20260507100101 | 51 | 84 | 0.0 | 0.0 | 0.00 | 0.03 | 0.01 | 85 | 1008.4 |
| 20260507095536 | 51 | 84 | 0.0 | 0.0 | 0.00 | 0.03 | 0.01 | 86 | 1008.3 |
| 20260507095017 | 51 | 84 | 0.0 | 0.0 | 0.00 | 0.03 | 0.01 | 85 | 1008.1 |
| 20260507094530 | 51 | 84 | 0.0 | 0.0 | 0.00 | 0.03 | 0.01 | 85 | 1008.2 |
| 20260507094008 | 51 | 84 | 0.0 | 0.0 | 0.00 | 0.03 | 0.01 | 85 | 1008.4 |
| 20260507093552 | 51 | 84 | 0.0 | 0.0 | 0.00 | 0.03 | 0.01 | 84 | 1008.5 |
| 20260507093005 | 51 | 84 | 0.0 | 0.0 | 0.00 | 0.03 | 0.01 | 85 | 1008.5 |
| 20260507092547 | 51 | 84 | 0.0 | 0.0 | 0.00 | 0.03 | 0.01 | 84 | 1008.4 |
| 20260507092025 | 51 | 84 | 0.0 | 0.0 | 0.00 | 0.03 | 0.01 | 85 | 1008.5 |
| 20260507091554 | 51 | 84 | 0.0 | 0.0 | 0.00 | 0.03 | 0.01 | 85 | 1008.5 |
| 20260507091019 | 51 | 84 | 0.0 | 0.0 | 0.00 | 0.03 | 0.01 | 85 | 1008.4 |
| 20260507090601 | 51 | 84 | 0.0 | 0.0 | 0.00 | 0.03 | 0.01 | 85 | 1008.4 |
| 20260507090014 | 51 | 84 | 0.0 | 0.0 | 0.00 | 0.03 | 0.01 | 83 | 1008.2 |
| 20260507085558 | 51 | 84 | 0.0 | 0.0 | 0.00 | 0.03 | 0.01 | 82 | 1008.0 |
| 20260507085036 | 51 | 84 | 0.0 | 0.0 | 0.00 | 0.03 | 0.01 | 83 | 1008.1 |
| 20260507084542 | 51 | 84 | 0.0 | 0.0 | 0.00 | 0.03 | 0.01 | 83 | 1008.2 |
| 20260507084020 | 51 | 84 | 0.0 | 0.0 | 0.00 | 0.03 | 0.01 | 83 | 1008.5 |
| 20260507083603 | 51 | 84 | 0.0 | 0.0 | 0.00 | 0.03 | 0.01 | 83 | 1008.4 |
| 20260507083019 | 51 | 84 | 0.0 | 0.0 | 0.00 | 0.03 | 0.01 | 84 | 1008.5 |
| 20260507082556 | 51 | 84 | 0.0 | 0.0 | 0.00 | 0.03 | 0.01 | 84 | 1008.5 |
| 20260507082035 | 51 | 84 | 0.0 | 0.0 | 0.00 | 0.03 | 0.01 | 84 | 1008.5 |
| 20260507081551 | 51 | 84 | 0.0 | 0.0 | 0.00 | 0.03 | 0.01 | 82 | 1008.3 |
| 20260507081021 | 51 | 84 | 0.0 | 0.0 | 0.00 | 0.03 | 0.01 | 82 | 1008.2 |
| 20260507080604 | 51 | 84 | 0.0 | 0.0 | 0.00 | 0.03 | 0.01 | 83 | 1008.2 |
| 20260507080006 | 51 | 84 | 0.0 | 1.7 | 0.00 | 0.03 | 0.01 | 84 | 1008.2 |
| 20260507075546 | 51 | 84 | 0.0 | 2.6 | 0.00 | 0.03 | 0.01 | 83 | 1008.5 |
| 20260507075024 | 51 | 83 | 0.0 | 2.6 | 0.00 | 0.03 | 0.01 | 85 | 1008.4 |
| 20260507074536 | 51 | 16 | 0.0 | 0.9 | 0.00 | 0.03 | 0.01 | 84 | 1008.3 |
| 20260507074007 | 51 | 16 | 0.0 | 1.7 | 0.00 | 0.03 | 0.01 | 84 | 1008.2 |
| 20260507073550 | 51 | 16 | 0.0 | 1.7 | 0.00 | 0.03 | 0.01 | 84 | 1008.1 |
| 20260507073110 | 51 | 23 | 0.0 | 0.0 | 0.00 | 0.03 | 0.01 | 83 | 1008.1 |
| 20260507072535 | 51 | 23 | 0.0 | 0.0 | 0.00 | 0.03 | 0.01 | 82 | 1008.0 |
| 20260507072015 | 52 | 23 | 0.0 | 0.0 | 0.00 | 0.03 | 0.01 | 84 | 1008.0 |
| 20260507071518 | 51 | 23 | 0.0 | 0.0 | 0.00 | 0.03 | 0.01 | 82 | 1008.1 |
| 20260507071101 | 52 | 23 | 0.0 | 0.0 | 0.00 | 0.03 | 0.01 | 82 | 1008.0 |
| 20260507070539 | 52 | 23 | 0.0 | 0.0 | 0.00 | 0.03 | 0.01 | 83 | 1008.1 |
| 20260507070114 | 52 | 23 | 0.0 | 0.0 | 0.00 | 0.03 | 0.01 | 84 | 1008.0 |
| 20260507065521 | 52 | 23 | 0.0 | 0.0 | 0.00 | 0.03 | 0.01 | 82 | 1008.0 |
| 20260507065104 | 52 | 23 | 0.0 | 0.0 | 0.00 | 0.03 | 0.01 | 81 | 1008.0 |
| 20260507064509 | 52 | 23 | 0.0 | 0.9 | 0.00 | 0.03 | 0.01 | 82 | 1008.0 |
| 20260507064048 | 52 | 23 | 0.0 | 1.7 | 0.00 | 0.03 | 0.01 | 83 | 1008.1 |
| 20260507063527 | 52 | 23 | 0.0 | 2.6 | 0.00 | 0.03 | 0.01 | 81 | 1008.1 |
| 20260507063031 | 52 | 275 | 0.0 | 1.7 | 0.00 | 0.03 | 0.01 | 83 | 1008.1 |
| 20260507062515 | 51 | 275 | 0.0 | 1.7 | 0.00 | 0.03 | 0.01 | 83 | 1008.2 |
| 20260507062057 | 51 | 274 | 0.0 | 1.7 | 0.00 | 0.03 | 0.01 | 85 | 1008.3 |
| 20260507061559 | 51 | 29 | 0.0 | 0.0 | 0.00 | 0.03 | 0.01 | 85 | 1008.2 |
| 20260507061036 | 51 | 30 | 0.0 | 0.0 | 0.00 | 0.03 | 0.01 | 86 | 1008.4 |
| 20260507060515 | 51 | 29 | 0.0 | 0.0 | 0.00 | 0.03 | 0.01 | 86 | 1008.5 |
| 20260507060032 | 51 | 29 | 0.0 | 0.0 | 0.00 | 0.03 | 0.01 | 86 | 1008.6 |
| 20260507055510 | 51 | 29 | 0.0 | 0.0 | 0.00 | 0.03 | 0.01 | 86 | 1008.6 |
| 20260507055054 | 51 | 29 | 0.0 | 0.0 | 0.00 | 0.03 | 0.01 | 86 | 1008.6 |
| 20260507054617 | 51 | 29 | 0.0 | 0.0 | 0.00 | 0.03 | 0.01 | 86 | 1008.7 |
| 20260507054033 | 51 | 29 | 0.0 | 0.0 | 0.00 | 0.03 | 0.01 | 86 | 1008.7 |
| 20260507053512 | 51 | 30 | 0.0 | 0.0 | 0.00 | 0.03 | 0.01 | 86 | 1008.6 |
| 20260507053029 | 51 | 29 | 0.0 | 0.0 | 0.00 | 0.03 | 0.01 | 86 | 1008.7 |
| 20260507052506 | 51 | 29 | 0.0 | 0.0 | 0.00 | 0.03 | 0.01 | 86 | 1008.6 |
| 20260507052049 | 52 | 29 | 0.0 | 0.0 | 0.00 | 0.03 | 0.01 | 86 | 1008.5 |
| 20260507051555 | 52 | 29 | 0.0 | 0.0 | 0.01 | 0.03 | 0.01 | 86 | 1008.5 |
| 20260507051031 | 52 | 29 | 0.0 | 0.0 | 0.01 | 0.03 | 0.01 | 86 | 1008.5 |
| 20260507050510 | 52 | 29 | 0.0 | 0.9 | 0.01 | 0.03 | 0.01 | 86 | 1008.4 |
| 20260507050032 | 52 | 29 | 0.0 | 1.7 | 0.01 | 0.03 | 0.01 | 86 | 1008.4 |
| 20260507045504 | 52 | 29 | 0.0 | 1.7 | 0.01 | 0.03 | 0.01 | 86 | 1008.5 |
| 20260507045048 | 52 | 29 | 0.0 | 1.7 | 0.01 | 0.03 | 0.01 | 87 | 1008.3 |
| 20260507044551 | 52 | 29 | 0.0 | 1.7 | 0.01 | 0.03 | 0.01 | 86 | 1008.2 |
| 20260507044029 | 52 | 29 | 0.0 | 0.9 | 0.01 | 0.03 | 0.01 | 86 | 1008.1 |
| 20260507043508 | 53 | 29 | 0.0 | 1.7 | 0.01 | 0.03 | 0.01 | 86 | 1008.0 |
| 20260507043014 | 53 | 29 | 0.0 | 1.7 | 0.01 | 0.03 | 0.01 | 86 | 1008.0 |
| 20260507042556 | 53 | 29 | 0.0 | 1.7 | 0.01 | 0.03 | 0.01 | 86 | 1008.0 |
| 20260507042034 | 53 | 29 | 0.0 | 1.7 | 0.01 | 0.03 | 0.01 | 86 | 1008.0 |
| 20260507041539 | 54 | 29 | 0.0 | 2.6 | 0.00 | 0.02 | 0.00 | 86 | 1008.0 |
| 20260507041017 | 54 | 30 | 0.9 | 2.6 | 0.00 | 0.02 | 0.00 | 86 | 1008.0 |
| 20260507040603 | 54 | 29 | 0.9 | 4.3 | 0.00 | 0.02 | 0.00 | 85 | 1008.0 |
| 20260507040013 | 55 | 39 | 1.7 | 4.3 | 0.00 | 0.02 | 0.00 | 84 | 1008.0 |
| 20260507035555 | 55 | 21 | 2.6 | 4.3 | 0.00 | 0.02 | 0.02 | 83 | 1007.8 |
| 20260507035033 | 55 | 53 | 0.0 | 4.3 | 0.00 | 0.02 | 0.02 | 83 | 1007.2 |
| 20260507034541 | 56 | 43 | 0.0 | 0.0 | 0.00 | 0.02 | 0.02 | 83 | 1007.4 |
| 20260507034016 | 56 | 56 | 0.0 | 0.0 | 0.00 | 0.02 | 0.02 | 83 | 1007.7 |
| 20260507033559 | 56 | 54 | 0.0 | 0.0 | 0.00 | 0.02 | 0.02 | 83 | 1008.0 |
| 20260507033106 | 56 | 50 | 0.0 | 0.0 | 0.00 | 0.02 | 0.02 | 83 | 1008.2 |
| 20260507032542 | 56 | 141 | 0.0 | 0.0 | 0.00 | 0.02 | 0.02 | 83 | 1008.0 |
| 20260507032022 | 56 | 153 | 0.0 | 0.0 | 0.00 | 0.02 | 0.02 | 83 | 1007.4 |
| 20260507031541 | 56 | 153 | 0.0 | 0.0 | 0.00 | 0.02 | 0.02 | 83 | 1007.4 |
| 20260507031017 | 57 | 55 | 0.0 | 0.0 | 0.00 | 0.02 | 0.02 | 83 | 1007.4 |
| 20260507030600 | 57 | 37 | 0.0 | 0.0 | 0.00 | 0.02 | 0.02 | 82 | 1007.8 |
| 20260507030012 | 57 | 37 | 0.0 | 0.0 | 0.00 | 0.02 | 0.02 | 82 | 1007.9 |
| 20260507025552 | 57 | 37 | 0.0 | 0.0 | 0.00 | 0.02 | 0.02 | 83 | 1007.4 |
| 20260507025030 | 57 | 32 | 0.0 | 0.0 | 0.00 | 0.02 | 0.02 | 83 | 1007.7 |
| 20260507024547 | 57 | 32 | 0.0 | 0.0 | 0.00 | 0.02 | 0.02 | 82 | 1008.0 |
| 20260507024026 | 57 | 32 | 0.0 | 0.0 | 0.00 | 0.02 | 0.02 | 82 | 1008.0 |
| 20260507023503 | 57 | 32 | 0.0 | 0.0 | 0.00 | 0.02 | 0.02 | 82 | 1007.7 |
| 20260507023020 | 57 | 32 | 0.0 | 0.0 | 0.00 | 0.02 | 0.02 | 82 | 1007.2 |
| 20260507022602 | 57 | 32 | 0.0 | 0.0 | 0.00 | 0.02 | 0.02 | 82 | 1007.5 |
| 20260507022040 | 57 | 32 | 0.0 | 0.0 | 0.00 | 0.02 | 0.02 | 82 | 1007.3 |
| 20260507021615 | 58 | 32 | 0.0 | 0.0 | 0.00 | 0.02 | 0.02 | 82 | 1007.2 |
| 20260507021034 | 58 | 32 | 0.0 | 0.0 | 0.00 | 0.02 | 0.02 | 81 | 1007.3 |
| 20260507020512 | 58 | 32 | 0.0 | 0.0 | 0.00 | 0.02 | 0.02 | 81 | 1007.1 |
| 20260507020027 | 58 | 32 | 0.0 | 0.0 | 0.00 | 0.02 | 0.02 | 81 | 1007.3 |
| 20260507015504 | 58 | 32 | 0.0 | 0.0 | 0.00 | 0.02 | 0.02 | 81 | 1007.2 |
| 20260507015050 | 58 | 31 | 0.0 | 0.0 | 0.00 | 0.02 | 0.02 | 81 | 1007.2 |
| 20260507014611 | 58 | 45 | 0.0 | 0.0 | 0.00 | 0.02 | 0.02 | 81 | 1007.1 |
| 20260507014030 | 58 | 52 | 0.0 | 0.0 | 0.00 | 0.02 | 0.02 | 81 | 1006.8 |
| 20260507013508 | 59 | 21 | 0.0 | 0.0 | 0.00 | 0.02 | 0.02 | 81 | 1006.5 |
| 20260507013025 | 59 | 21 | 0.0 | 0.0 | 0.00 | 0.02 | 0.02 | 81 | 1006.8 |
| 20260507012507 | 59 | 21 | 0.0 | 0.0 | 0.00 | 0.02 | 0.02 | 82 | 1006.6 |
| 20260507012047 | 59 | 21 | 0.0 | 0.0 | 0.00 | 0.02 | 0.02 | 81 | 1006.6 |
| 20260507011552 | 59 | 21 | 0.0 | 0.0 | 0.00 | 0.02 | 0.02 | 81 | 1006.6 |
| 20260507011030 | 60 | 21 | 0.0 | 0.0 | 0.00 | 0.02 | 0.02 | 82 | 1006.6 |
| 20260507010509 | 60 | 21 | 0.0 | 0.0 | 0.00 | 0.02 | 0.02 | 82 | 1006.7 |
| 20260507010026 | 60 | 50 | 0.0 | 0.0 | 0.00 | 0.02 | 0.02 | 82 | 1006.4 |
| 20260507005506 | 60 | 50 | 0.0 | 2.6 | 0.00 | 0.02 | 0.02 | 81 | 1006.3 |
| 20260507005046 | 60 | 50 | 0.0 | 2.6 | 0.00 | 0.02 | 0.02 | 81 | 1006.1 |
| 20260507004553 | 60 | 50 | 0.9 | 2.6 | 0.00 | 0.02 | 0.02 | 81 | 1006.1 |
| 20260507004031 | 60 | 354 | 0.0 | 1.7 | 0.00 | 0.02 | 0.02 | 81 | 1006.0 |
| 20260507003511 | 60 | 354 | 0.0 | 1.7 | 0.00 | 0.02 | 0.02 | 81 | 1006.1 |
| 20260507003026 | 61 | 354 | 0.0 | 1.7 | 0.00 | 0.02 | 0.02 | 80 | 1006.0 |
| 20260507002505 | 61 | 354 | 0.9 | 2.6 | 0.00 | 0.02 | 0.02 | 80 | 1006.2 |
| 20260507002047 | 61 | 354 | 0.0 | 3.5 | 0.00 | 0.02 | 0.02 | 81 | 1006.6 |
| 20260507001555 | 61 | 318 | 0.9 | 3.5 | 0.00 | 0.02 | 0.02 | 80 | 1006.7 |
| 20260507001032 | 61 | 39 | 0.9 | 2.6 | 0.00 | 0.02 | 0.02 | 80 | 1006.6 |
| 20260507000510 | 62 | 39 | 1.7 | 3.5 | 0.00 | 0.02 | 0.02 | 80 | 1006.4 |
| 20260507000014 | 62 | 30 | 0.9 | 2.6 | 0.00 | 0.02 | 0.02 | 80 | 1006.2 |
| 20260506235557 | 62 | 30 | 0.0 | 2.6 | 0.00 | 0.02 | 0.02 | 80 | 1006.3 |
| 20260506235036 | 62 | 30 | 0.9 | 2.6 | 0.00 | 0.02 | 0.02 | 79 | 1006.1 |
| 20260506234539 | 62 | 29 | 0.9 | 2.6 | 0.00 | 0.02 | 0.02 | 79 | 1006.2 |
| 20260506234018 | 63 | 27 | 0.0 | 1.7 | 0.00 | 0.02 | 0.02 | 79 | 1006.3 |
| 20260506233600 | 63 | 287 | 0.0 | 0.9 | 0.00 | 0.02 | 0.02 | 78 | 1006.1 |
| 20260506233001 | 63 | 287 | 0.0 | 0.9 | 0.00 | 0.02 | 0.02 | 77 | 1006.1 |
| 20260506232543 | 63 | 287 | 0.0 | 0.9 | 0.00 | 0.02 | 0.02 | 76 | 1006.0 |
| 20260506232021 | 63 | 287 | 0.0 | 1.7 | 0.00 | 0.02 | 0.02 | 76 | 1006.0 |